NKS828 TXKF-MDLR

Flight info

Callsign NKS828
Flight time 2h 26m
Altitude 36000
Route BORNN1 ANTIG DCT DUPOX DCT LUCTI/N0468F360 DCT JSTIN/N0463F370 L453 ASIVO/N0403F180 W37 KOBET T17 PETRI PETRI2D
Aircraft A320/M-SDE3FGHIRWY/LB1

Departure

Time 2026-04-27 22:20
Airport L.F. Wade International Airport (TXKF)

Arrival

Time 2026-04-28 00:46
Airport Casa De Campo International Airport (MDLR)
Time Latitude Longitude Altitude Speed Heading
2026-04-27 21:40 32.36429 -64.66755 28 ft 0 kts 241°
2026-04-27 22:11 32.36429 -64.66756 28 ft 1 kts 241°
2026-04-27 22:11 32.36427 -64.66781 28 ft 4 kts 267°
2026-04-27 22:11 32.36411 -64.66791 50 ft 2 kts 197°
2026-04-27 22:11 32.36410 -64.66791 50 ft 0 kts 197°
2026-04-27 22:15 32.36383 -64.66801 28 ft 13 kts 203°
2026-04-27 22:15 32.36386 -64.66954 28 ft 25 kts 284°
2026-04-27 22:15 32.36422 -64.67154 27 ft 25 kts 285°
2026-04-27 22:15 32.36454 -64.67360 27 ft 26 kts 281°
2026-04-27 22:16 32.36492 -64.67567 26 ft 26 kts 282°
2026-04-27 22:16 32.36530 -64.67778 27 ft 26 kts 282°
2026-04-27 22:16 32.36555 -64.67994 26 ft 27 kts 275°
2026-04-27 22:16 32.36596 -64.68188 27 ft 24 kts 281°
2026-04-27 22:17 32.36631 -64.68384 27 ft 25 kts 281°
2026-04-27 22:17 32.36670 -64.68585 27 ft 25 kts 280°
2026-04-27 22:17 32.36700 -64.68792 27 ft 26 kts 281°
2026-04-27 22:17 32.36700 -64.68929 29 ft 0 kts 245°
2026-04-27 22:18 32.36688 -64.68959 29 ft 11 kts 248°
2026-04-27 22:18 32.36646 -64.69073 21 ft 14 kts 219°
2026-04-27 22:18 32.36608 -64.69051 20 ft 2 kts 105°
2026-04-27 22:19 32.36605 -64.69035 20 ft 0 kts 104°
2026-04-27 22:19 32.36578 -64.68878 22 ft 51 kts 101°
2026-04-27 22:19 32.36465 -64.68211 23 ft 112 kts 102°
2026-04-27 22:20 32.36263 -64.67071 67 ft 166 kts 100°
2026-04-27 22:20 32.36040 -64.65710 719 ft 170 kts 104°
2026-04-27 22:20 32.35803 -64.64331 1480 ft 176 kts 109°
2026-04-27 22:20 32.35532 -64.62829 1715 ft 198 kts 108°
2026-04-27 22:21 32.35224 -64.61134 1939 ft 223 kts 107°
2026-04-27 22:21 32.34880 -64.59247 2265 ft 246 kts 110°
2026-04-27 22:21 32.34026 -64.57529 2868 ft 245 kts 145°
2026-04-27 22:21 32.32475 -64.56799 3598 ft 244 kts 178°
2026-04-27 22:22 32.30777 -64.56961 4389 ft 248 kts 192°
2026-04-27 22:22 32.29080 -64.57441 5127 ft 254 kts 196°
2026-04-27 22:22 32.27357 -64.57998 5896 ft 258 kts 195°
2026-04-27 22:22 32.25687 -64.58764 6679 ft 259 kts 212°
2026-04-27 22:23 32.24290 -64.60110 7399 ft 262 kts 227°
2026-04-27 22:23 32.23262 -64.61894 8149 ft 265 kts 241°
2026-04-27 22:23 32.22411 -64.63835 8904 ft 268 kts 240°
2026-04-27 22:23 32.21538 -64.65781 9687 ft 269 kts 240°
2026-04-27 22:24 32.20650 -64.67749 10285 ft 277 kts 240°
2026-04-27 22:24 32.19705 -64.69834 10448 ft 299 kts 240°
2026-04-27 22:24 32.18687 -64.72078 10571 ft 321 kts 241°
2026-04-27 22:24 32.17601 -64.74473 10746 ft 339 kts 241°
2026-04-27 22:25 32.16479 -64.76955 11214 ft 346 kts 241°
2026-04-27 22:25 32.15345 -64.79475 11809 ft 349 kts 241°
2026-04-27 22:25 32.14203 -64.82019 12413 ft 352 kts 242°
2026-04-27 22:25 32.13053 -64.84581 13011 ft 355 kts 242°
2026-04-27 22:26 32.11892 -64.87163 13599 ft 358 kts 242°
2026-04-27 22:26 32.10717 -64.89768 14138 ft 361 kts 242°
2026-04-27 22:26 32.09533 -64.92386 14642 ft 363 kts 242°
2026-04-27 22:26 32.08338 -64.95022 15148 ft 366 kts 242°
2026-04-27 22:27 32.07135 -64.97676 15657 ft 368 kts 242°
2026-04-27 22:27 32.05924 -65.00348 16154 ft 371 kts 242°
2026-04-27 22:27 32.04706 -65.03036 16656 ft 373 kts 242°
2026-04-27 22:27 32.03479 -65.05745 17175 ft 376 kts 242°
2026-04-27 22:28 32.02244 -65.08466 17685 ft 378 kts 242°
2026-04-27 22:28 32.00996 -65.11207 18193 ft 381 kts 242°
2026-04-27 22:28 31.99738 -65.13964 18662 ft 383 kts 242°
2026-04-27 22:28 31.98471 -65.16738 19131 ft 385 kts 242°
2026-04-27 22:29 31.97201 -65.19520 19613 ft 386 kts 242°
2026-04-27 22:29 31.95926 -65.22310 20092 ft 388 kts 242°
2026-04-27 22:29 31.94648 -65.25111 20567 ft 389 kts 242°
2026-04-27 22:29 31.93364 -65.27929 20978 ft 392 kts 242°
2026-04-27 22:30 31.92072 -65.30763 21408 ft 393 kts 242°
2026-04-27 22:30 31.90777 -65.33601 21834 ft 395 kts 242°
2026-04-27 22:30 31.89473 -65.36452 22254 ft 396 kts 242°
2026-04-27 22:30 31.88163 -65.39312 22659 ft 398 kts 241°
2026-04-27 22:31 31.86846 -65.42181 23059 ft 399 kts 241°
2026-04-27 22:31 31.85525 -65.45056 23446 ft 401 kts 241°
2026-04-27 22:31 31.84197 -65.47946 23793 ft 402 kts 241°
2026-04-27 22:31 31.82864 -65.50849 24114 ft 404 kts 241°
2026-04-27 22:32 31.81527 -65.53758 24430 ft 405 kts 241°
2026-04-27 22:32 31.80184 -65.56677 24745 ft 407 kts 241°
2026-04-27 22:32 31.78836 -65.59606 25072 ft 408 kts 241°
2026-04-27 22:32 31.77482 -65.62542 25397 ft 409 kts 241°
2026-04-27 22:33 31.76124 -65.65488 25716 ft 410 kts 241°
2026-04-27 22:33 31.74762 -65.68440 26055 ft 411 kts 241°
2026-04-27 22:33 31.73404 -65.71381 26510 ft 409 kts 241°
2026-04-27 22:33 31.72051 -65.74307 26983 ft 406 kts 241°
2026-04-27 22:34 31.70703 -65.77215 27458 ft 404 kts 242°
2026-04-27 22:34 31.69363 -65.80108 27926 ft 402 kts 242°
2026-04-27 22:34 31.68027 -65.82986 28405 ft 400 kts 242°
2026-04-27 22:34 31.66698 -65.85847 28889 ft 398 kts 242°
2026-04-27 22:35 31.65394 -65.88658 29355 ft 397 kts 242°
2026-04-27 22:35 31.64079 -65.91494 29834 ft 395 kts 242°
2026-04-27 22:35 31.62768 -65.94317 30274 ft 394 kts 241°
2026-04-27 22:35 31.61454 -65.97139 30581 ft 395 kts 241°
2026-04-27 22:36 31.60120 -66.00001 30924 ft 394 kts 241°
2026-04-27 22:36 31.58828 -66.02780 31318 ft 391 kts 242°
2026-04-27 22:36 31.57530 -66.05573 31748 ft 389 kts 242°
2026-04-27 22:36 31.56237 -66.08345 32161 ft 387 kts 242°
2026-04-27 22:37 31.54946 -66.11105 32553 ft 386 kts 242°
2026-04-27 22:37 31.53701 -66.13882 32931 ft 385 kts 246°
2026-04-27 22:37 31.52842 -66.16849 33297 ft 385 kts 256°
2026-04-27 22:37 31.52482 -66.19962 33663 ft 387 kts 265°
2026-04-27 22:38 31.52456 -66.23118 34016 ft 387 kts 266°
2026-04-27 22:38 31.52435 -66.26273 34347 ft 386 kts 266°
2026-04-27 22:38 31.52407 -66.29415 34675 ft 385 kts 266°
2026-04-27 22:38 31.52369 -66.32587 34995 ft 383 kts 266°
2026-04-27 22:39 31.52326 -66.35659 35294 ft 382 kts 266°
2026-04-27 22:39 31.52283 -66.38766 35591 ft 381 kts 266°
2026-04-27 22:39 31.52240 -66.41860 35878 ft 379 kts 266°
2026-04-27 22:39 31.52198 -66.44952 36024 ft 379 kts 266°
2026-04-27 22:40 31.52156 -66.48060 36055 ft 384 kts 266°
2026-04-27 22:40 31.52064 -66.54404 36057 ft 392 kts 266°
2026-04-27 22:41 31.51971 -66.60813 36056 ft 394 kts 266°
2026-04-27 22:41 31.51878 -66.67238 36057 ft 394 kts 266°
2026-04-27 22:42 31.51281 -66.73566 36056 ft 390 kts 250°
2026-04-27 22:42 31.50127 -66.76427 36053 ft 389 kts 237°
2026-04-27 22:42 31.48406 -66.78884 36028 ft 392 kts 225°
2026-04-27 22:42 31.46215 -66.80807 36024 ft 398 kts 213°
2026-04-27 22:43 31.43698 -66.82200 36026 ft 402 kts 208°
2026-04-27 22:43 31.38564 -66.84820 36031 ft 403 kts 208°
2026-04-27 22:44 31.33405 -66.87424 36040 ft 404 kts 208°
2026-04-27 22:44 31.28245 -66.90053 36062 ft 405 kts 208°
2026-04-27 22:45 31.23078 -66.92693 36064 ft 406 kts 208°
2026-04-27 22:45 31.17893 -66.95325 36067 ft 406 kts 208°
2026-04-27 22:46 31.12705 -66.97961 36070 ft 406 kts 208°
2026-04-27 22:46 31.07523 -67.00594 36070 ft 406 kts 208°
2026-04-27 22:47 31.02339 -67.03222 36047 ft 406 kts 208°
2026-04-27 22:47 30.97187 -67.05826 36059 ft 406 kts 208°
2026-04-27 22:48 30.91993 -67.08445 36066 ft 406 kts 208°
2026-04-27 22:48 30.86788 -67.11072 36032 ft 410 kts 208°
2026-04-27 22:49 30.81539 -67.13719 36028 ft 412 kts 208°
2026-04-27 22:49 30.76257 -67.16386 36027 ft 416 kts 208°
2026-04-27 22:50 30.70931 -67.19066 36042 ft 418 kts 208°
2026-04-27 22:50 30.65597 -67.21743 36054 ft 418 kts 208°
2026-04-27 22:51 30.60259 -67.24414 36064 ft 418 kts 208°
2026-04-27 22:51 30.54924 -67.27096 36045 ft 418 kts 208°
2026-04-27 22:52 30.49584 -67.29773 36046 ft 418 kts 208°
2026-04-27 22:52 30.44236 -67.32448 36050 ft 419 kts 208°
2026-04-27 22:53 30.38882 -67.35119 36055 ft 419 kts 207°
2026-04-27 22:53 30.34392 -67.37348 36059 ft 419 kts 207°
2026-04-27 22:54 30.29030 -67.40019 36039 ft 419 kts 207°
2026-04-27 22:54 30.23705 -67.42670 36046 ft 420 kts 207°
2026-04-27 22:55 30.18338 -67.45337 36052 ft 420 kts 207°
2026-04-27 22:55 30.12966 -67.48003 36057 ft 420 kts 207°
2026-04-27 22:56 30.07589 -67.50673 36063 ft 421 kts 207°
2026-04-27 22:56 30.02212 -67.53338 36056 ft 421 kts 207°
2026-04-27 22:57 29.96834 -67.56003 36069 ft 421 kts 207°
2026-04-27 22:57 29.91449 -67.58666 36068 ft 421 kts 207°
2026-04-27 22:58 29.86061 -67.61322 36069 ft 421 kts 207°
2026-04-27 22:58 29.80667 -67.63976 36046 ft 422 kts 207°
2026-04-27 22:59 29.75273 -67.66629 36046 ft 422 kts 207°
2026-04-27 22:59 29.69878 -67.69287 36063 ft 422 kts 207°
2026-04-27 23:00 29.61778 -67.73255 36064 ft 422 kts 207°
2026-04-27 23:00 29.56380 -67.75903 36058 ft 422 kts 207°
2026-04-27 23:01 29.50987 -67.78555 36065 ft 422 kts 207°
2026-04-27 23:01 29.45593 -67.81200 36067 ft 422 kts 207°
2026-04-27 23:02 29.40189 -67.83834 36069 ft 422 kts 207°
2026-04-27 23:02 29.34787 -67.86466 36070 ft 422 kts 207°
2026-04-27 23:03 29.29424 -67.89087 36060 ft 422 kts 207°
2026-04-27 23:03 29.24027 -67.91714 36070 ft 421 kts 207°
2026-04-27 23:04 29.18632 -67.94337 36075 ft 421 kts 207°
2026-04-27 23:04 29.13238 -67.96960 36077 ft 421 kts 207°
2026-04-27 23:05 29.07846 -67.99576 36073 ft 421 kts 207°
2026-04-27 23:05 29.02455 -68.02188 36071 ft 421 kts 207°
2026-04-27 23:06 28.97068 -68.04803 36073 ft 421 kts 207°
2026-04-27 23:06 28.91680 -68.07410 36074 ft 420 kts 207°
2026-04-27 23:07 28.86294 -68.10012 36074 ft 420 kts 207°
2026-04-27 23:07 28.80908 -68.12607 36074 ft 420 kts 207°
2026-04-27 23:08 28.75518 -68.15197 36075 ft 420 kts 207°
2026-04-27 23:08 28.70134 -68.17790 36073 ft 420 kts 207°
2026-04-27 23:09 28.64754 -68.20386 36091 ft 420 kts 207°
2026-04-27 23:09 28.59358 -68.22977 36082 ft 421 kts 207°
2026-04-27 23:10 28.53960 -68.25566 36054 ft 421 kts 207°
2026-04-27 23:10 28.48557 -68.28154 36056 ft 421 kts 207°
2026-04-27 23:11 28.43151 -68.30743 36053 ft 422 kts 207°
2026-04-27 23:11 28.37741 -68.33332 36059 ft 422 kts 207°
2026-04-27 23:12 28.32331 -68.35921 36047 ft 422 kts 207°
2026-04-27 23:12 28.26920 -68.38504 36060 ft 422 kts 206°
2026-04-27 23:13 28.21503 -68.41086 36067 ft 422 kts 206°
2026-04-27 23:13 28.16086 -68.43659 36071 ft 422 kts 206°
2026-04-27 23:14 28.10664 -68.46233 36075 ft 422 kts 206°
2026-04-27 23:14 28.05246 -68.48811 36061 ft 422 kts 207°
2026-04-27 23:15 27.99832 -68.51379 36076 ft 422 kts 206°
2026-04-27 23:15 27.94388 -68.53864 36089 ft 424 kts 201°
2026-04-27 23:16 27.88546 -68.55170 36079 ft 429 kts 194°
2026-04-27 23:16 27.82654 -68.56302 36077 ft 430 kts 194°
2026-04-27 23:17 27.76752 -68.57436 36063 ft 430 kts 195°
2026-04-27 23:17 27.70861 -68.58577 36069 ft 430 kts 195°
2026-04-27 23:18 27.64963 -68.59704 36081 ft 430 kts 195°
2026-04-27 23:18 27.59072 -68.60833 36082 ft 429 kts 195°
2026-04-27 23:19 27.53184 -68.61964 36061 ft 429 kts 195°
2026-04-27 23:19 27.47300 -68.63084 36073 ft 429 kts 195°
2026-04-27 23:20 27.41426 -68.64202 36085 ft 428 kts 195°
2026-04-27 23:20 27.35555 -68.65331 36084 ft 428 kts 195°
2026-04-27 23:21 27.29685 -68.66457 36081 ft 428 kts 195°
2026-04-27 23:21 27.23817 -68.67573 36061 ft 427 kts 195°
2026-04-27 23:22 27.17958 -68.68684 36073 ft 427 kts 195°
2026-04-27 23:22 27.12110 -68.69798 36079 ft 426 kts 195°
2026-04-27 23:23 27.06260 -68.70914 36085 ft 426 kts 195°
2026-04-27 23:23 27.00414 -68.72019 36086 ft 426 kts 195°
2026-04-27 23:24 26.94568 -68.73116 36069 ft 425 kts 196°
2026-04-27 23:24 26.88735 -68.74222 36074 ft 425 kts 196°
2026-04-27 23:25 26.82913 -68.75336 36078 ft 424 kts 196°
2026-04-27 23:25 26.77088 -68.76445 36079 ft 425 kts 196°
2026-04-27 23:26 26.71260 -68.77539 36057 ft 425 kts 196°
2026-04-27 23:26 26.65441 -68.78631 36071 ft 424 kts 196°
2026-04-27 23:27 26.59625 -68.79729 36077 ft 424 kts 196°
2026-04-27 23:27 26.53811 -68.80815 36078 ft 424 kts 196°
2026-04-27 23:28 26.48003 -68.81907 36075 ft 423 kts 196°
2026-04-27 23:28 26.42237 -68.82992 36044 ft 423 kts 197°
2026-04-27 23:29 26.36438 -68.84079 36063 ft 422 kts 197°
2026-04-27 23:29 26.30651 -68.85167 36071 ft 422 kts 197°
2026-04-27 23:30 26.24863 -68.86251 36094 ft 422 kts 197°
2026-04-27 23:30 26.19074 -68.87339 36085 ft 422 kts 197°
2026-04-27 23:31 26.13268 -68.88421 36073 ft 423 kts 197°
2026-04-27 23:31 26.07451 -68.89505 36074 ft 424 kts 197°
2026-04-27 23:32 26.01629 -68.90588 36081 ft 425 kts 196°
2026-04-27 23:32 25.95798 -68.91668 36082 ft 425 kts 197°
2026-04-27 23:33 25.89972 -68.92755 36079 ft 424 kts 197°
2026-04-27 23:33 25.84153 -68.93842 36063 ft 424 kts 197°
2026-04-27 23:34 25.78336 -68.94925 36079 ft 424 kts 197°
2026-04-27 23:34 25.72524 -68.96007 36083 ft 423 kts 197°
2026-04-27 23:35 25.66719 -68.97082 36084 ft 423 kts 197°
2026-04-27 23:35 25.60914 -68.98154 36083 ft 423 kts 197°
2026-04-27 23:36 25.55112 -68.99216 36080 ft 422 kts 198°
2026-04-27 23:36 25.49333 -69.00284 36089 ft 421 kts 198°
2026-04-27 23:37 25.43568 -69.01358 36092 ft 420 kts 198°
2026-04-27 23:37 25.38781 -69.02240 36092 ft 419 kts 198°
2026-04-27 23:38 25.33027 -69.03296 36090 ft 419 kts 198°
2026-04-27 23:38 25.27287 -69.04353 36073 ft 418 kts 198°
2026-04-27 23:39 25.21556 -69.05409 36083 ft 417 kts 198°
2026-04-27 23:39 25.15830 -69.06458 36087 ft 417 kts 198°
2026-04-27 23:40 25.10107 -69.07505 36091 ft 417 kts 198°
2026-04-27 23:40 25.04382 -69.08554 36088 ft 417 kts 198°
2026-04-27 23:41 24.98660 -69.09607 36057 ft 417 kts 198°
2026-04-27 23:41 24.92951 -69.10690 36077 ft 416 kts 199°
2026-04-27 23:42 24.87249 -69.11787 36078 ft 416 kts 199°
2026-04-27 23:42 24.81551 -69.12878 36077 ft 416 kts 199°
2026-04-27 23:43 24.75888 -69.13955 36077 ft 416 kts 198°
2026-04-27 23:43 24.70188 -69.15037 36067 ft 416 kts 198°
2026-04-27 23:44 24.64480 -69.16123 36078 ft 416 kts 198°
2026-04-27 23:44 24.58774 -69.17205 36081 ft 416 kts 198°
2026-04-27 23:45 24.53069 -69.18281 36085 ft 416 kts 198°
2026-04-27 23:45 24.47362 -69.19356 36102 ft 416 kts 198°
2026-04-27 23:46 24.41660 -69.20427 36072 ft 416 kts 198°
2026-04-27 23:46 24.35962 -69.21508 36073 ft 416 kts 198°
2026-04-27 23:47 24.30261 -69.22584 36074 ft 416 kts 198°
2026-04-27 23:47 24.24561 -69.23651 36074 ft 416 kts 198°
2026-04-27 23:48 24.18859 -69.24721 36073 ft 416 kts 198°
2026-04-27 23:48 24.13157 -69.25805 36045 ft 416 kts 198°
2026-04-27 23:49 24.07448 -69.26881 36056 ft 417 kts 198°
2026-04-27 23:49 24.01724 -69.27953 36064 ft 417 kts 198°
2026-04-27 23:50 23.95997 -69.29024 36075 ft 418 kts 198°
2026-04-27 23:50 23.90269 -69.30092 36080 ft 418 kts 198°
2026-04-27 23:51 23.84542 -69.31168 36062 ft 417 kts 198°
2026-04-27 23:51 23.78815 -69.32242 36068 ft 418 kts 197°
2026-04-27 23:52 23.73088 -69.33311 36072 ft 418 kts 197°
2026-04-27 23:52 23.67352 -69.34379 36076 ft 418 kts 197°
2026-04-27 23:53 23.61616 -69.35447 36080 ft 419 kts 197°
2026-04-27 23:53 23.55872 -69.36512 36058 ft 419 kts 197°
2026-04-27 23:54 23.50132 -69.37583 36066 ft 419 kts 197°
2026-04-27 23:54 23.44382 -69.38656 36074 ft 419 kts 197°
2026-04-27 23:55 23.38634 -69.39724 36081 ft 419 kts 197°
2026-04-27 23:55 23.32884 -69.40796 36087 ft 419 kts 197°
2026-04-27 23:56 23.27130 -69.41859 36083 ft 419 kts 197°
2026-04-27 23:56 23.21379 -69.42923 36085 ft 419 kts 197°
2026-04-27 23:57 23.15628 -69.43990 36081 ft 419 kts 197°
2026-04-27 23:57 23.09877 -69.45057 36081 ft 419 kts 197°
2026-04-27 23:58 23.04128 -69.46121 36083 ft 419 kts 197°
2026-04-27 23:58 22.98375 -69.47183 36054 ft 419 kts 197°
2026-04-27 23:59 22.92625 -69.48235 36065 ft 419 kts 197°
2026-04-27 23:59 22.86873 -69.49307 36072 ft 419 kts 197°
2026-04-28 00:00 22.81123 -69.50374 36079 ft 420 kts 197°
2026-04-28 00:00 22.75402 -69.51423 36084 ft 420 kts 197°
2026-04-28 00:01 22.69645 -69.52473 36063 ft 420 kts 197°
2026-04-28 00:01 22.63892 -69.53529 36076 ft 420 kts 197°
2026-04-28 00:02 22.58128 -69.54587 36078 ft 420 kts 197°
2026-04-28 00:02 22.52363 -69.55648 36077 ft 421 kts 197°
2026-04-28 00:03 22.46590 -69.56706 36081 ft 421 kts 197°
2026-04-28 00:03 22.40814 -69.57761 36050 ft 421 kts 197°
2026-04-28 00:04 22.32152 -69.59346 36073 ft 421 kts 197°
2026-04-28 00:05 22.26381 -69.60398 36075 ft 421 kts 197°
2026-04-28 00:05 22.20609 -69.61457 36080 ft 421 kts 197°
2026-04-28 00:06 22.14839 -69.62508 36085 ft 420 kts 197°
2026-04-28 00:06 22.09070 -69.63562 36067 ft 420 kts 197°
2026-04-28 00:07 22.03309 -69.64612 36076 ft 420 kts 197°
2026-04-28 00:07 21.97546 -69.65660 36081 ft 420 kts 197°
2026-04-28 00:08 21.91792 -69.66708 36078 ft 419 kts 197°
2026-04-28 00:08 21.86073 -69.67743 36080 ft 419 kts 197°
2026-04-28 00:09 21.80321 -69.68792 36055 ft 419 kts 197°
2026-04-28 00:09 21.74571 -69.69844 36067 ft 419 kts 197°
2026-04-28 00:10 21.68823 -69.70882 36070 ft 419 kts 197°
2026-04-28 00:10 21.63072 -69.71917 36073 ft 419 kts 197°
2026-04-28 00:11 21.57330 -69.72963 36076 ft 418 kts 197°
2026-04-28 00:11 21.51590 -69.74020 36069 ft 418 kts 197°
2026-04-28 00:12 21.45851 -69.75056 36061 ft 418 kts 196°
2026-04-28 00:12 21.40112 -69.76087 36071 ft 418 kts 196°
2026-04-28 00:13 21.34378 -69.77118 36069 ft 418 kts 196°
2026-04-28 00:13 21.28645 -69.78148 36070 ft 418 kts 196°
2026-04-28 00:14 21.22826 -69.78743 36068 ft 429 kts 184°
2026-04-28 00:14 21.16897 -69.78297 36044 ft 431 kts 184°
2026-04-28 00:15 21.10880 -69.77836 36052 ft 431 kts 184°
2026-04-28 00:15 21.04902 -69.77380 36058 ft 431 kts 184°
2026-04-28 00:16 20.98919 -69.76928 36064 ft 431 kts 184°
2026-04-28 00:16 20.92936 -69.76467 36065 ft 431 kts 184°
2026-04-28 00:17 20.86953 -69.76008 36038 ft 431 kts 184°
2026-04-28 00:17 20.80967 -69.75561 36044 ft 431 kts 184°
2026-04-28 00:18 20.74981 -69.75127 36057 ft 431 kts 184°
2026-04-28 00:18 20.68994 -69.74691 36063 ft 431 kts 184°
2026-04-28 00:19 20.63010 -69.74248 36067 ft 431 kts 184°
2026-04-28 00:19 20.57029 -69.73799 36067 ft 431 kts 184°
2026-04-28 00:20 20.51048 -69.73348 36055 ft 431 kts 184°
2026-04-28 00:20 20.45069 -69.72897 36065 ft 431 kts 184°
2026-04-28 00:21 20.39087 -69.72452 36068 ft 431 kts 184°
2026-04-28 00:21 20.33146 -69.72018 36072 ft 431 kts 184°
2026-04-28 00:22 20.27169 -69.71579 36073 ft 431 kts 184°
2026-04-28 00:22 20.21186 -69.71125 36075 ft 431 kts 184°
2026-04-28 00:23 20.15204 -69.70681 36078 ft 431 kts 184°
2026-04-28 00:23 20.10196 -69.70313 36077 ft 430 kts 184°
2026-04-28 00:24 20.03259 -69.69795 36090 ft 428 kts 184°
2026-04-28 00:24 19.98372 -69.69424 36002 ft 414 kts 184°
2026-04-28 00:24 19.94540 -69.69310 34703 ft 420 kts 190°
2026-04-28 00:25 19.92548 -69.69421 33966 ft 428 kts 190°
2026-04-28 00:25 19.89542 -69.69592 32889 ft 437 kts 189°
2026-04-28 00:25 19.86483 -69.69761 31904 ft 443 kts 189°
2026-04-28 00:25 19.83439 -69.69920 30813 ft 443 kts 189°
2026-04-28 00:26 19.80341 -69.70073 29181 ft 449 kts 188°
2026-04-28 00:26 19.77254 -69.70218 28316 ft 436 kts 188°
2026-04-28 00:26 19.74267 -69.70352 27419 ft 425 kts 188°
2026-04-28 00:26 19.71313 -69.70492 26393 ft 429 kts 187°
2026-04-28 00:27 19.68324 -69.70643 25670 ft 429 kts 187°
2026-04-28 00:27 19.65354 -69.70795 24994 ft 427 kts 187°
2026-04-28 00:27 19.62390 -69.70948 24308 ft 426 kts 186°
2026-04-28 00:27 19.59435 -69.71099 23618 ft 425 kts 186°
2026-04-28 00:28 19.56485 -69.71249 22854 ft 423 kts 186°
2026-04-28 00:28 19.53558 -69.71397 22182 ft 419 kts 186°
2026-04-28 00:28 19.50660 -69.71540 21519 ft 415 kts 185°
2026-04-28 00:28 19.47786 -69.71682 20862 ft 412 kts 185°
2026-04-28 00:29 19.44926 -69.71737 20300 ft 409 kts 180°
2026-04-28 00:29 19.42130 -69.71581 20167 ft 395 kts 180°
2026-04-28 00:29 19.39439 -69.71441 20042 ft 381 kts 180°
2026-04-28 00:29 19.36842 -69.71312 19929 ft 367 kts 180°
2026-04-28 00:30 19.34334 -69.71190 19820 ft 354 kts 180°
2026-04-28 00:30 19.31916 -69.71073 19690 ft 342 kts 180°
2026-04-28 00:30 19.29568 -69.70942 19457 ft 336 kts 177°
2026-04-28 00:30 19.27299 -69.70410 19288 ft 333 kts 163°
2026-04-28 00:31 19.25187 -69.69349 18928 ft 342 kts 151°
2026-04-28 00:31 19.23292 -69.67801 18550 ft 344 kts 144°
2026-04-28 00:31 19.21459 -69.66194 18204 ft 340 kts 144°
2026-04-28 00:31 19.19636 -69.64605 17695 ft 339 kts 144°
2026-04-28 00:32 19.17817 -69.63028 17293 ft 337 kts 144°
2026-04-28 00:32 19.16008 -69.61461 16919 ft 335 kts 144°
2026-04-28 00:32 19.14210 -69.59906 16544 ft 333 kts 144°
2026-04-28 00:32 19.12426 -69.58365 16066 ft 329 kts 144°
2026-04-28 00:33 19.10666 -69.56842 15431 ft 326 kts 144°
2026-04-28 00:33 19.08910 -69.55323 14971 ft 326 kts 144°
2026-04-28 00:33 19.07163 -69.53812 14647 ft 323 kts 144°
2026-04-28 00:33 19.05432 -69.52314 14196 ft 320 kts 144°
2026-04-28 00:34 19.03736 -69.50848 13703 ft 318 kts 144°
2026-04-28 00:34 19.02002 -69.49353 13236 ft 317 kts 144°
2026-04-28 00:34 19.00328 -69.47910 12927 ft 314 kts 144°
2026-04-28 00:34 18.98618 -69.46436 12575 ft 312 kts 144°
2026-04-28 00:35 18.96943 -69.44995 12251 ft 309 kts 143°
2026-04-28 00:35 18.95278 -69.43564 11916 ft 307 kts 143°
2026-04-28 00:35 18.93629 -69.42140 11585 ft 305 kts 142°
2026-04-28 00:35 18.92027 -69.40728 11266 ft 303 kts 142°
2026-04-28 00:36 18.90425 -69.39296 10956 ft 301 kts 141°
2026-04-28 00:36 18.88849 -69.37878 10450 ft 296 kts 141°
2026-04-28 00:36 18.87285 -69.36471 9923 ft 293 kts 141°
2026-04-28 00:36 18.85740 -69.35084 9468 ft 289 kts 141°
2026-04-28 00:37 18.84213 -69.33719 9216 ft 286 kts 141°
2026-04-28 00:37 18.82692 -69.32365 8941 ft 285 kts 141°
2026-04-28 00:37 18.81177 -69.31020 8682 ft 284 kts 141°
2026-04-28 00:37 18.79666 -69.29678 8409 ft 284 kts 141°
2026-04-28 00:38 18.78139 -69.28321 8134 ft 283 kts 141°
2026-04-28 00:38 18.76655 -69.27003 7866 ft 282 kts 141°
2026-04-28 00:38 18.75134 -69.25655 7598 ft 282 kts 141°
2026-04-28 00:38 18.73655 -69.24345 7335 ft 281 kts 141°
2026-04-28 00:39 18.72146 -69.23043 7071 ft 280 kts 142°
2026-04-28 00:39 18.70618 -69.21771 6788 ft 279 kts 142°
2026-04-28 00:39 18.69088 -69.20513 6524 ft 279 kts 142°
2026-04-28 00:39 18.67559 -69.19259 6244 ft 278 kts 142°
2026-04-28 00:40 18.66041 -69.18013 5986 ft 275 kts 142°
2026-04-28 00:40 18.64542 -69.16776 5724 ft 273 kts 142°
2026-04-28 00:40 18.63051 -69.15544 5461 ft 272 kts 142°
2026-04-28 00:40 18.61566 -69.14314 5201 ft 271 kts 142°
2026-04-28 00:41 18.60085 -69.13088 4944 ft 271 kts 142°
2026-04-28 00:41 18.58607 -69.11862 4685 ft 270 kts 141°
2026-04-28 00:41 18.57135 -69.10640 4424 ft 269 kts 141°
2026-04-28 00:41 18.55672 -69.09435 4164 ft 265 kts 143°
2026-04-28 00:42 18.54049 -69.08549 3907 ft 262 kts 162°
2026-04-28 00:42 18.52257 -69.08270 3635 ft 262 kts 181°
2026-04-28 00:42 18.50479 -69.08473 3360 ft 251 kts 185°
2026-04-28 00:42 18.48803 -69.08427 3094 ft 233 kts 158°
2026-04-28 00:43 18.47538 -69.07510 2851 ft 216 kts 124°
2026-04-28 00:43 18.46999 -69.06113 2643 ft 202 kts 97°
2026-04-28 00:43 18.46833 -69.04686 2453 ft 191 kts 97°
2026-04-28 00:43 18.46675 -69.03336 2252 ft 181 kts 97°
2026-04-28 00:44 18.46529 -69.02069 2068 ft 168 kts 97°
2026-04-28 00:44 18.46394 -69.00900 1857 ft 159 kts 97°
2026-04-28 00:44 18.46261 -68.99758 1649 ft 151 kts 96°
2026-04-28 00:44 18.46136 -68.98697 1453 ft 146 kts 96°
2026-04-28 00:45 18.46014 -68.97665 1276 ft 140 kts 97°
2026-04-28 00:45 18.45894 -68.96647 1088 ft 141 kts 97°
2026-04-28 00:45 18.45773 -68.95632 908 ft 139 kts 97°
2026-04-28 00:45 18.45678 -68.94623 739 ft 140 kts 99°
2026-04-28 00:46 18.45548 -68.93602 480 ft 142 kts 92°
2026-04-28 00:46 18.45425 -68.92566 303 ft 143 kts 97°
2026-04-28 00:46 18.45300 -68.91561 223 ft 125 kts 96°
2026-04-28 00:46 18.45245 -68.91087 225 ft 16 kts 95°
2026-04-28 00:47 18.45216 -68.90859 223 ft 44 kts 100°
2026-04-28 00:47 18.45162 -68.90556 222 ft 23 kts 100°
2026-04-28 00:47 18.45179 -68.90554 224 ft 10 kts 279°
2026-04-28 00:47 18.45189 -68.90644 226 ft 13 kts 276°
2026-04-28 00:48 18.45204 -68.90768 224 ft 26 kts 276°
2026-04-28 00:48 18.45229 -68.90984 224 ft 25 kts 277°
2026-04-28 00:48 18.45245 -68.91128 226 ft 20 kts 275°
2026-04-28 00:48 18.45225 -68.91150 223 ft 6 kts 156°
2026-04-28 00:49 18.45168 -68.91145 223 ft 10 kts 187°
2026-04-28 00:49 18.45087 -68.91159 220 ft 14 kts 185°
2026-04-28 00:49 18.45074 -68.91160 220 ft 1 kts 183°
2026-04-28 00:49 18.45006 -68.91190 220 ft 14 kts 206°
2026-04-28 00:50 18.44946 -68.91200 220 ft 0 kts 186°
2026-04-28 00:50 18.44932 -68.91203 222 ft 1 kts 189°
2026-04-28 00:50 18.44931 -68.91203 222 ft 0 kts 189°